Find Starlink 31688

NORAD ID: 59386 Int'l Des: 2024-062 Owner: SPXS Country: US Constellation: starlink operational
LEOCIRCULAR

リアルタイム位置

3D地球を読み込み中...

Starlink 31688について

説明を読み込み中...

次回通過

Passes for default location (London). Set your location on the main map for personalized predictions.

高度履歴

Loading altitude history...

軌道要素

1 59386U 24062N 26121.39666775 .00000867 00000-0 41395-4 0 9993
2 59386 53.1619 13.5059 0001105 92.0015 268.1112 15.30198628117660
Epoch: May 1, 2026 • Age: 10 hours

現在のステータス

高度 481.0 km
速度 7.63 km/s
衛星直下点 53.02°N, 39.87°W
打ち上げ日 Apr 2, 2024
運用期間 2 years
タイプ internet

技術仕様

分類 Payload
質量 730.00 kg
乾燥質量 700.00 kg
総質量 730.00 kg
長さ 0.30 m
直径 4.10 m
スパン 29.00 m
形状 Box + pan
製造者 SPXS
バスタイプ Starlink V2M
フェーズステータス In Orbit
所有者/国 SPXS/US

Most Searched